Time,TemperatureF,DewpointF,PressureIn,WindDirection,WindDirectionDegrees,WindSpeedMPH,WindSpeedGustMPH,Humidity,HourlyPrecipIn,Conditions,Clouds,dailyrainin,SoftwareType,DateUTC
2013-05-16 00:00:00,65.6,54.8,29.95,WNW,293,0.0,0.0,68,0.00,,,0.00,Wunderground v.1.15,2013-05-16 04:00:00,
2013-05-16 00:05:00,65.4,55.0,29.95,WNW,293,0.0,0.0,69,0.00,,,0.00,Wunderground v.1.15,2013-05-16 04:05:00,
2013-05-16 00:10:00,65.3,54.9,29.95,WNW,293,0.0,0.0,69,0.00,,,0.00,Wunderground v.1.15,2013-05-16 04:10:00,
2013-05-16 00:15:00,65.1,54.7,29.95,WNW,293,0.0,0.0,69,0.00,,,0.00,Wunderground v.1.15,2013-05-16 04:15:00,
2013-05-16 00:20:00,64.9,54.9,29.95,WNW,292,0.0,0.0,70,0.00,,,0.00,Wunderground v.1.15,2013-05-16 04:20:00,
2013-05-16 00:25:00,64.8,54.8,29.95,WNW,293,0.0,0.0,70,0.00,,,0.00,Wunderground v.1.15,2013-05-16 04:25:00,
2013-05-16 00:30:00,64.7,55.1,29.95,WNW,293,0.0,0.0,71,0.00,,,0.00,Wunderground v.1.15,2013-05-16 04:30:00,
2013-05-16 00:40:00,64.5,55.3,29.95,WNW,293,0.0,0.0,72,0.00,,,0.00,Wunderground v.1.15,2013-05-16 04:40:00,
2013-05-16 00:45:00,64.1,55.3,29.95,WNW,293,0.0,0.0,73,0.00,,,0.00,Wunderground v.1.15,2013-05-16 04:45:00,
2013-05-16 00:50:00,63.9,55.1,29.95,WNW,293,0.0,0.0,73,0.00,,,0.00,Wunderground v.1.15,2013-05-16 04:50:00,
2013-05-16 00:55:00,63.6,54.8,29.95,WNW,292,0.0,0.0,73,0.00,,,0.00,Wunderground v.1.15,2013-05-16 04:55:00,
2013-05-16 01:00:00,63.5,54.7,29.95,WNW,292,0.0,0.0,73,0.00,,,0.00,Wunderground v.1.15,2013-05-16 05:00:00,
2013-05-16 01:05:00,63.8,55.4,29.95,WNW,293,0.0,0.0,74,0.00,,,0.00,Wunderground v.1.15,2013-05-16 05:05:00,
2013-05-16 01:10:00,63.8,55.0,29.95,WNW,293,0.0,0.0,73,0.00,,,0.00,Wunderground v.1.15,2013-05-16 05:10:00,
2013-05-16 01:15:00,63.6,54.8,29.94,WNW,292,0.0,0.0,73,0.00,,,0.00,Wunderground v.1.15,2013-05-16 05:15:00,
2013-05-16 01:20:00,63.4,55.0,29.94,WNW,293,0.0,0.0,74,0.00,,,0.00,Wunderground v.1.15,2013-05-16 05:20:00,
2013-05-16 01:25:00,63.2,54.4,29.94,WNW,293,0.0,0.0,73,0.00,,,0.00,Wunderground v.1.15,2013-05-16 05:25:00,
2013-05-16 01:30:00,63.3,54.9,29.94,WNW,292,0.0,0.0,74,0.00,,,0.00,Wunderground v.1.15,2013-05-16 05:30:00,
2013-05-16 01:35:00,63.3,54.5,29.94,WNW,293,0.0,0.0,73,0.00,,,0.00,Wunderground v.1.15,2013-05-16 05:35:00,
2013-05-16 01:40:00,63.3,54.5,29.94,WNW,293,0.0,0.0,73,0.00,,,0.00,Wunderground v.1.15,2013-05-16 05:40:00,
2013-05-16 01:45:00,63.4,54.6,29.94,WNW,292,0.0,0.0,73,0.00,,,0.00,Wunderground v.1.15,2013-05-16 05:45:00,
2013-05-16 01:50:00,63.4,54.6,29.94,WNW,292,0.0,0.0,73,0.00,,,0.00,Wunderground v.1.15,2013-05-16 05:50:00,
2013-05-16 01:55:00,63.4,54.6,29.94,WNW,293,0.0,0.0,73,0.00,,,0.00,Wunderground v.1.15,2013-05-16 05:55:00,
2013-05-16 02:00:00,63.5,54.7,29.93,WNW,293,0.0,0.0,73,0.00,,,0.00,Wunderground v.1.15,2013-05-16 06:00:00,
2013-05-16 02:05:00,63.3,54.5,29.93,WNW,292,0.0,0.0,73,0.00,,,0.00,Wunderground v.1.15,2013-05-16 06:05:00,
2013-05-16 02:10:00,63.1,54.3,29.93,WNW,293,0.0,0.0,73,0.00,,,0.00,Wunderground v.1.15,2013-05-16 06:10:00,
2013-05-16 02:15:00,62.9,54.5,29.93,WNW,292,0.0,0.0,74,0.00,,,0.00,Wunderground v.1.15,2013-05-16 06:15:00,
2013-05-16 02:25:00,62.5,54.5,29.94,WNW,292,0.0,0.0,75,0.00,,,0.00,Wunderground v.1.15,2013-05-16 06:25:00,
2013-05-16 02:30:00,62.1,54.4,29.93,WNW,293,0.0,0.0,76,0.00,,,0.00,Wunderground v.1.15,2013-05-16 06:30:00,
2013-05-16 02:35:00,61.7,54.4,29.94,WNW,293,0.0,0.0,77,0.00,,,0.00,Wunderground v.1.15,2013-05-16 06:35:00,
2013-05-16 02:40:00,61.3,54.0,29.93,WNW,292,0.0,0.0,77,0.00,,,0.00,Wunderground v.1.15,2013-05-16 06:40:00,
2013-05-16 02:45:00,60.9,54.3,29.94,WNW,293,0.0,0.0,79,0.00,,,0.00,Wunderground v.1.15,2013-05-16 06:45:00,
2013-05-16 02:55:00,60.0,53.8,29.93,WNW,292,0.0,0.0,80,0.00,,,0.00,Wunderground v.1.15,2013-05-16 06:55:00,
2013-05-16 03:00:00,59.6,53.8,29.93,WNW,293,0.0,0.0,81,0.00,,,0.00,Wunderground v.1.15,2013-05-16 07:00:00,
2013-05-16 03:05:00,59.1,53.6,29.92,WNW,292,0.0,0.0,82,0.00,,,0.00,Wunderground v.1.15,2013-05-16 07:05:00,
2013-05-16 03:10:00,59.0,53.8,29.92,WNW,293,0.0,0.0,83,0.00,,,0.00,Wunderground v.1.15,2013-05-16 07:10:00,
2013-05-16 03:15:00,59.0,53.8,29.92,WNW,292,0.0,0.0,83,0.00,,,0.00,Wunderground v.1.15,2013-05-16 07:15:00,
2013-05-16 03:20:00,59.0,53.8,29.92,WNW,293,0.0,0.0,83,0.00,,,0.00,Wunderground v.1.15,2013-05-16 07:20:00,
2013-05-16 03:25:00,59.0,54.2,29.92,WNW,293,0.0,0.0,84,0.00,,,0.00,Wunderground v.1.15,2013-05-16 07:25:00,
2013-05-16 03:30:00,59.0,54.2,29.92,WNW,292,0.0,0.0,84,0.00,,,0.00,Wunderground v.1.15,2013-05-16 07:30:00,
2013-05-16 03:35:00,59.0,54.2,29.92,WNW,293,0.0,0.0,84,0.00,,,0.00,Wunderground v.1.15,2013-05-16 07:35:00,
2013-05-16 03:40:00,58.9,54.7,29.92,WNW,293,0.0,0.0,86,0.00,,,0.00,Wunderground v.1.15,2013-05-16 07:40:00,
2013-05-16 03:45:00,58.6,54.1,29.92,WNW,293,0.0,0.0,85,0.00,,,0.00,Wunderground v.1.15,2013-05-16 07:45:00,
2013-05-16 03:50:00,58.5,54.0,29.92,WNW,292,0.0,0.0,85,0.00,,,0.00,Wunderground v.1.15,2013-05-16 07:50:00,
2013-05-16 03:55:00,58.3,53.8,29.92,WNW,292,0.0,0.0,85,0.00,,,0.00,Wunderground v.1.15,2013-05-16 07:55:00,
2013-05-16 04:00:00,58.2,53.7,29.92,WNW,293,0.0,0.0,85,0.00,,,0.00,Wunderground v.1.15,2013-05-16 08:00:00,
2013-05-16 04:05:00,58.1,53.9,29.92,WNW,292,0.0,0.0,86,0.00,,,0.00,Wunderground v.1.15,2013-05-16 08:05:00,
2013-05-16 04:10:00,58.0,53.8,29.92,WNW,293,0.0,0.0,86,0.00,,,0.00,Wunderground v.1.15,2013-05-16 08:10:00,
2013-05-16 04:15:00,58.0,53.8,29.92,WNW,293,0.0,0.0,86,0.00,,,0.00,Wunderground v.1.15,2013-05-16 08:15:00,
2013-05-16 04:20:00,57.8,53.6,29.92,WNW,293,0.0,0.0,86,0.00,,,0.00,Wunderground v.1.15,2013-05-16 08:20:00,
2013-05-16 04:25:00,57.8,54.0,29.92,WNW,292,0.0,0.0,87,0.00,,,0.00,Wunderground v.1.15,2013-05-16 08:25:00,
2013-05-16 04:30:00,57.6,53.8,29.92,WNW,293,0.0,0.0,87,0.00,,,0.00,Wunderground v.1.15,2013-05-16 08:30:00,
2013-05-16 04:35:00,57.5,53.7,29.92,WNW,293,0.0,0.0,87,0.00,,,0.00,Wunderground v.1.15,2013-05-16 08:35:00,
2013-05-16 04:40:00,57.5,53.7,29.92,WNW,293,0.0,0.0,87,0.00,,,0.00,Wunderground v.1.15,2013-05-16 08:40:00,
2013-05-16 04:45:00,57.5,53.7,29.92,WNW,293,0.0,0.0,87,0.00,,,0.00,Wunderground v.1.15,2013-05-16 08:45:00,
2013-05-16 04:50:00,57.5,53.7,29.92,WNW,293,0.0,0.0,87,0.00,,,0.00,Wunderground v.1.15,2013-05-16 08:50:00,
2013-05-16 04:55:00,57.5,54.0,29.92,WNW,293,0.0,0.0,88,0.00,,,0.00,Wunderground v.1.15,2013-05-16 08:55:00,
2013-05-16 05:00:00,57.5,53.7,29.92,WNW,292,0.0,0.0,87,0.00,,,0.00,Wunderground v.1.15,2013-05-16 09:00:00,
2013-05-16 05:05:00,57.5,53.7,29.93,WNW,292,0.0,0.0,87,0.00,,,0.00,Wunderground v.1.15,2013-05-16 09:05:00,
2013-05-16 05:10:00,57.6,53.8,29.93,WNW,292,0.0,0.0,87,0.00,,,0.00,Wunderground v.1.15,2013-05-16 09:10:00,
2013-05-16 05:15:00,57.8,54.3,29.93,WNW,293,0.0,0.0,88,0.00,,,0.00,Wunderground v.1.15,2013-05-16 09:15:00,
2013-05-16 05:20:00,57.8,54.0,29.93,WNW,293,0.0,0.0,87,0.00,,,0.00,Wunderground v.1.15,2013-05-16 09:20:00,
2013-05-16 05:25:00,57.8,54.0,29.93,WNW,292,0.0,0.0,87,0.00,,,0.00,Wunderground v.1.15,2013-05-16 09:25:00,
2013-05-16 05:30:00,57.3,53.5,29.94,WNW,293,0.0,0.0,87,0.00,,,0.00,Wunderground v.1.15,2013-05-16 09:30:00,
2013-05-16 05:35:00,56.9,53.4,29.94,WNW,292,0.0,0.0,88,0.00,,,0.00,Wunderground v.1.15,2013-05-16 09:35:00,
2013-05-16 05:40:00,56.7,53.5,29.94,WNW,293,0.0,0.0,89,0.00,,,0.00,Wunderground v.1.15,2013-05-16 09:40:00,
2013-05-16 05:45:00,56.6,53.4,29.93,WNW,293,0.0,0.0,89,0.00,,,0.00,Wunderground v.1.15,2013-05-16 09:45:00,
2013-05-16 05:50:00,56.6,53.4,29.93,WNW,292,0.0,0.0,89,0.00,,,0.00,Wunderground v.1.15,2013-05-16 09:50:00,
2013-05-16 05:55:00,56.6,53.4,29.93,WNW,293,0.0,0.0,89,0.00,,,0.00,Wunderground v.1.15,2013-05-16 09:55:00,
2013-05-16 06:00:00,56.7,53.5,29.93,WNW,292,0.0,0.0,89,0.00,,,0.00,Wunderground v.1.15,2013-05-16 10:00:00,
2013-05-16 06:05:00,56.8,53.6,29.93,WNW,293,0.0,0.0,89,0.00,,,0.00,Wunderground v.1.15,2013-05-16 10:05:00,
2013-05-16 06:15:00,57.0,53.5,29.93,WNW,293,0.0,0.0,88,0.00,,,0.00,Wunderground v.1.15,2013-05-16 10:15:00,
2013-05-16 06:20:00,57.0,53.8,29.93,WNW,292,0.0,0.0,89,0.00,,,0.00,Wunderground v.1.15,2013-05-16 10:20:00,
2013-05-16 06:25:00,56.9,53.7,29.94,WNW,293,0.0,0.0,89,0.00,,,0.00,Wunderground v.1.15,2013-05-16 10:25:00,
2013-05-16 06:30:00,56.7,53.5,29.94,WNW,293,0.0,0.0,89,0.00,,,0.00,Wunderground v.1.15,2013-05-16 10:30:00,
2013-05-16 06:35:00,56.6,53.4,29.94,WNW,293,0.0,0.0,89,0.00,,,0.00,Wunderground v.1.15,2013-05-16 10:35:00,
2013-05-16 06:40:00,56.5,53.3,29.94,WNW,292,0.0,0.0,89,0.00,,,0.00,Wunderground v.1.15,2013-05-16 10:40:00,
2013-05-16 06:45:00,56.5,53.6,29.94,West,278,0.0,0.0,90,0.00,,,0.00,Wunderground v.1.15,2013-05-16 10:45:00,
2013-05-16 06:50:00,56.4,53.5,29.94,West,278,0.0,0.0,90,0.00,,,0.00,Wunderground v.1.15,2013-05-16 10:50:00,
2013-05-16 06:55:00,56.3,53.4,29.94,West,277,0.0,0.0,90,0.00,,,0.00,Wunderground v.1.15,2013-05-16 10:55:00,
2013-05-16 07:00:00,56.3,53.4,29.94,West,278,0.0,0.0,90,0.00,,,0.00,Wunderground v.1.15,2013-05-16 11:00:00,
2013-05-16 07:05:00,56.3,53.4,29.94,West,278,0.0,0.0,90,0.00,,,0.00,Wunderground v.1.15,2013-05-16 11:05:00,
2013-05-16 07:15:00,56.4,53.8,29.94,West,277,0.0,0.0,91,0.00,,,0.00,Wunderground v.1.15,2013-05-16 11:15:00,
2013-05-16 07:20:00,56.4,53.8,29.95,West,277,0.0,0.0,91,0.00,,,0.00,Wunderground v.1.15,2013-05-16 11:20:00,
2013-05-16 07:25:00,56.5,53.9,29.96,West,278,0.0,0.0,91,0.00,,,0.00,Wunderground v.1.15,2013-05-16 11:25:00,
2013-05-16 07:30:00,56.7,54.4,29.96,West,278,0.0,0.0,92,0.00,,,0.00,Wunderground v.1.15,2013-05-16 11:30:00,
2013-05-16 07:35:00,56.9,54.6,29.96,West,278,0.0,0.0,92,0.00,,,0.00,Wunderground v.1.15,2013-05-16 11:35:00,
2013-05-16 07:40:00,57.0,54.7,29.96,West,278,0.0,0.0,92,0.00,,,0.00,Wunderground v.1.15,2013-05-16 11:40:00,
2013-05-16 07:45:00,57.1,54.8,29.96,West,277,0.0,0.0,92,0.00,,,0.00,Wunderground v.1.15,2013-05-16 11:45:00,
2013-05-16 07:50:00,57.2,54.9,29.96,West,277,0.0,0.0,92,0.00,,,0.00,Wunderground v.1.15,2013-05-16 11:50:00,
2013-05-16 07:55:00,57.4,55.1,29.96,West,277,0.0,0.0,92,0.00,,,0.00,Wunderground v.1.15,2013-05-16 11:55:00,
2013-05-16 08:00:00,57.6,55.3,29.95,West,278,0.0,0.0,92,0.00,,,0.00,Wunderground v.1.15,2013-05-16 12:00:00,
2013-05-16 08:05:00,57.8,55.5,29.96,West,277,0.0,0.0,92,0.00,,,0.00,Wunderground v.1.15,2013-05-16 12:05:00,
2013-05-16 08:10:00,58.0,55.7,29.97,West,278,0.0,0.0,92,0.00,,,0.00,Wunderground v.1.15,2013-05-16 12:10:00,
2013-05-16 08:15:00,58.2,55.6,29.97,West,277,0.0,0.0,91,0.00,,,0.00,Wunderground v.1.15,2013-05-16 12:15:00,
2013-05-16 08:20:00,58.4,55.8,29.97,West,278,0.0,0.0,91,0.00,,,0.00,Wunderground v.1.15,2013-05-16 12:20:00,
2013-05-16 08:25:00,58.6,55.7,29.96,West,277,0.0,0.0,90,0.00,,,0.00,Wunderground v.1.15,2013-05-16 12:25:00,
2013-05-16 08:35:00,58.7,56.1,29.96,West,278,0.0,0.0,91,0.00,,,0.00,Wunderground v.1.15,2013-05-16 12:35:00,
2013-05-16 08:40:00,58.8,56.2,29.97,West,278,0.0,0.0,91,0.00,,,0.00,Wunderground v.1.15,2013-05-16 12:40:00,
2013-05-16 08:45:00,59.0,56.4,29.97,West,278,0.0,0.0,91,0.00,,,0.00,Wunderground v.1.15,2013-05-16 12:45:00,
2013-05-16 08:50:00,59.0,56.4,29.97,West,277,0.0,0.0,91,0.00,,,0.00,Wunderground v.1.15,2013-05-16 12:50:00,
2013-05-16 08:55:00,59.5,56.6,29.97,West,278,0.0,0.0,90,0.00,,,0.00,Wunderground v.1.15,2013-05-16 12:55:00,
2013-05-16 09:00:00,60.0,57.1,29.97,West,277,0.0,0.0,90,0.00,,,0.00,Wunderground v.1.15,2013-05-16 13:00:00,
2013-05-16 09:05:00,60.4,57.1,29.98,West,277,0.0,0.0,89,0.00,,,0.00,Wunderground v.1.15,2013-05-16 13:05:00,
2013-05-16 09:10:00,60.7,57.1,29.98,West,277,0.0,0.0,88,0.00,,,0.00,Wunderground v.1.15,2013-05-16 13:10:00,
2013-05-16 09:15:00,61.2,57.9,29.98,SSW,207,1.0,1.0,89,0.00,,,0.00,Wunderground v.1.15,2013-05-16 13:15:00,
2013-05-16 09:25:00,62.2,56.6,29.98,SSW,196,1.0,1.0,82,0.00,,,0.00,Wunderground v.1.15,2013-05-16 13:25:00,
2013-05-16 09:30:00,62.6,57.4,29.98,SSW,197,0.0,0.0,83,0.00,,,0.00,Wunderground v.1.15,2013-05-16 13:30:00,
2013-05-16 09:35:00,63.0,58.4,29.98,SSW,196,0.0,0.0,85,0.00,,,0.00,Wunderground v.1.15,2013-05-16 13:35:00,
2013-05-16 09:40:00,63.4,58.8,29.97,SSW,197,0.0,0.0,85,0.00,,,0.00,Wunderground v.1.15,2013-05-16 13:40:00,
2013-05-16 09:45:00,63.5,58.2,29.98,SSW,196,0.0,0.0,83,0.00,,,0.00,Wunderground v.1.15,2013-05-16 13:45:00,
2013-05-16 09:50:00,63.6,57.0,29.98,SSW,197,0.0,0.0,79,0.00,,,0.00,Wunderground v.1.15,2013-05-16 13:50:00,
2013-05-16 09:55:00,64.0,59.1,29.98,SSW,197,0.0,0.0,84,0.00,,,0.00,Wunderground v.1.15,2013-05-16 13:55:00,
2013-05-16 10:00:00,64.4,59.8,29.98,SSW,196,0.0,0.0,85,0.00,,,0.00,Wunderground v.1.15,2013-05-16 14:00:00,
2013-05-16 10:05:00,64.5,59.2,29.98,SSW,197,0.0,0.0,83,0.00,,,0.00,Wunderground v.1.15,2013-05-16 14:05:00,
2013-05-16 10:15:00,64.4,59.5,29.98,SSW,197,0.0,0.0,84,0.00,,,0.00,Wunderground v.1.15,2013-05-16 14:15:00,
2013-05-16 10:20:00,64.5,59.9,29.98,SSW,196,0.0,0.0,85,0.00,,,0.00,Wunderground v.1.15,2013-05-16 14:20:00,
2013-05-16 10:25:00,64.7,59.8,29.98,SSW,197,0.0,0.0,84,0.00,,,0.00,Wunderground v.1.15,2013-05-16 14:25:00,
2013-05-16 10:30:00,64.9,59.9,29.98,SSW,197,0.0,0.0,84,0.00,,,0.00,Wunderground v.1.15,2013-05-16 14:30:00,
2013-05-16 10:35:00,65.2,60.6,29.98,SSW,197,0.0,0.0,85,0.00,,,0.00,Wunderground v.1.15,2013-05-16 14:35:00,
2013-05-16 10:40:00,65.6,60.6,29.98,SSW,197,0.0,0.0,84,0.00,,,0.00,Wunderground v.1.15,2013-05-16 14:40:00,
2013-05-16 10:45:00,65.9,60.9,29.98,SSW,197,0.0,0.0,84,0.00,,,0.00,Wunderground v.1.15,2013-05-16 14:45:00,
2013-05-16 10:50:00,66.2,61.2,29.98,SSW,197,0.0,0.0,84,0.00,,,0.00,Wunderground v.1.15,2013-05-16 14:50:00,
2013-05-16 10:55:00,66.5,61.2,29.98,SSW,196,0.0,0.0,83,0.00,,,0.00,Wunderground v.1.15,2013-05-16 14:55:00,
2013-05-16 11:00:00,66.9,61.9,29.99,SSW,197,0.0,0.0,84,0.00,,,0.00,Wunderground v.1.15,2013-05-16 15:00:00,
2013-05-16 11:05:00,67.3,60.9,29.98,SSW,197,0.0,0.0,80,0.00,,,0.00,Wunderground v.1.15,2013-05-16 15:05:00,
2013-05-16 11:10:00,67.6,59.4,29.98,SSW,198,0.0,1.0,75,0.00,,,0.00,Wunderground v.1.15,2013-05-16 15:10:00,
2013-05-16 11:15:00,68.0,61.6,29.98,SSW,197,0.0,1.0,80,0.00,,,0.00,Wunderground v.1.15,2013-05-16 15:15:00,
2013-05-16 11:20:00,68.3,62.2,29.99,SSW,196,0.0,0.0,81,0.00,,,0.00,Wunderground v.1.15,2013-05-16 15:20:00,
2013-05-16 11:25:00,68.4,61.6,29.98,SSW,198,0.0,0.0,79,0.00,,,0.00,Wunderground v.1.15,2013-05-16 15:25:00,
2013-05-16 11:30:00,68.4,62.0,29.98,SSW,198,0.0,0.0,80,0.00,,,0.00,Wunderground v.1.15,2013-05-16 15:30:00,
2013-05-16 11:35:00,68.3,61.5,29.98,SSW,198,0.0,0.0,79,0.00,,,0.00,Wunderground v.1.15,2013-05-16 15:35:00,
2013-05-16 11:40:00,68.1,61.7,29.98,SSW,196,0.0,0.0,80,0.00,,,0.00,Wunderground v.1.15,2013-05-16 15:40:00,
2013-05-16 11:45:00,67.9,61.1,29.98,SSW,198,0.0,0.0,79,0.00,,,0.00,Wunderground v.1.15,2013-05-16 15:45:00,
2013-05-16 11:50:00,67.7,60.6,29.98,SSW,198,0.0,0.0,78,0.00,,,0.00,Wunderground v.1.15,2013-05-16 15:50:00,
2013-05-16 11:55:00,67.6,59.8,29.98,SSW,196,0.0,0.0,76,0.00,,,0.00,Wunderground v.1.15,2013-05-16 15:55:00,
2013-05-16 12:00:00,67.7,60.2,29.98,SSW,197,0.0,0.0,77,0.00,,,0.00,Wunderground v.1.15,2013-05-16 16:00:00,
2013-05-16 12:05:00,67.8,60.7,29.98,SSW,198,0.0,0.0,78,0.00,,,0.00,Wunderground v.1.15,2013-05-16 16:05:00,
2013-05-16 12:15:00,68.2,61.8,29.99,SSW,197,0.0,0.0,80,0.00,,,0.00,Wunderground v.1.15,2013-05-16 16:15:00,
2013-05-16 12:20:00,68.4,61.6,29.98,SSW,197,0.0,0.0,79,0.00,,,0.00,Wunderground v.1.15,2013-05-16 16:20:00,
2013-05-16 12:30:00,68.7,60.1,29.98,SSW,198,0.0,0.0,74,0.00,,,0.00,Wunderground v.1.15,2013-05-16 16:30:00,
2013-05-16 12:35:00,68.7,58.9,29.98,SSW,198,0.0,0.0,71,0.00,,,0.00,Wunderground v.1.15,2013-05-16 16:35:00,
2013-05-16 12:40:00,68.8,59.4,29.98,SSW,197,0.0,0.0,72,0.00,,,0.00,Wunderground v.1.15,2013-05-16 16:40:00,
2013-05-16 12:45:00,68.9,60.6,29.97,SSW,198,0.0,0.0,75,0.00,,,0.00,Wunderground v.1.15,2013-05-16 16:45:00,
2013-05-16 12:50:00,69.0,58.4,29.97,SSW,198,0.0,0.0,69,0.00,,,0.00,Wunderground v.1.15,2013-05-16 16:50:00,
2013-05-16 12:55:00,69.4,59.6,29.97,SW,227,1.0,1.0,71,0.00,,,0.00,Wunderground v.1.15,2013-05-16 16:55:00,
2013-05-16 13:05:00,70.6,58.7,29.96,SW,229,1.0,2.0,66,0.00,,,0.00,Wunderground v.1.15,2013-05-16 17:05:00,
2013-05-16 13:10:00,71.9,60.3,29.96,SW,229,1.0,1.0,67,0.00,,,0.00,Wunderground v.1.15,2013-05-16 17:10:00,
2013-05-16 13:15:00,72.3,58.5,29.96,WSW,240,1.0,1.0,62,0.00,,,0.00,Wunderground v.1.15,2013-05-16 17:15:00,
2013-05-16 13:25:00,72.4,60.0,29.96,WSW,240,0.0,1.0,65,0.00,,,0.00,Wunderground v.1.15,2013-05-16 17:25:00,
2013-05-16 13:30:00,72.6,59.3,29.96,WSW,240,0.0,0.0,63,0.00,,,0.00,Wunderground v.1.15,2013-05-16 17:30:00,
2013-05-16 13:35:00,72.7,60.3,29.96,WSW,240,0.0,0.0,65,0.00,,,0.00,Wunderground v.1.15,2013-05-16 17:35:00,
2013-05-16 13:40:00,72.9,60.4,29.95,WSW,240,0.0,0.0,65,0.00,,,0.00,Wunderground v.1.15,2013-05-16 17:40:00,
2013-05-16 13:50:00,73.5,59.2,29.95,WSW,240,0.0,0.0,61,0.00,,,0.00,Wunderground v.1.15,2013-05-16 17:50:00,
2013-05-16 13:55:00,73.6,59.3,29.95,WSW,240,0.0,0.0,61,0.00,,,0.00,Wunderground v.1.15,2013-05-16 17:55:00,
2013-05-16 14:00:00,74.1,61.1,29.95,WSW,238,0.0,0.0,64,0.00,,,0.00,Wunderground v.1.15,2013-05-16 18:00:00,
2013-05-16 14:05:00,75.4,60.1,29.94,WSW,242,0.0,2.0,59,0.00,,,0.00,Wunderground v.1.15,2013-05-16 18:05:00,
2013-05-16 14:10:00,75.8,60.9,29.94,WSW,242,0.0,0.0,60,0.00,,,0.00,Wunderground v.1.15,2013-05-16 18:10:00,
2013-05-16 14:15:00,76.2,59.4,29.94,WSW,243,1.0,1.0,56,0.00,,,0.00,Wunderground v.1.15,2013-05-16 18:15:00,
2013-05-16 14:20:00,77.0,63.0,29.94,WSW,243,0.0,1.0,62,0.00,,,0.00,Wunderground v.1.15,2013-05-16 18:20:00,
2013-05-16 14:25:00,78.2,59.7,29.94,WSW,245,0.0,1.0,53,0.00,,,0.00,Wunderground v.1.15,2013-05-16 18:25:00,
2013-05-16 14:30:00,78.9,61.9,29.93,WSW,245,0.0,0.0,56,0.00,,,0.00,Wunderground v.1.15,2013-05-16 18:30:00,
2013-05-16 14:35:00,79.3,59.0,29.93,West,260,1.0,2.0,50,0.00,,,0.00,Wunderground v.1.15,2013-05-16 18:35:00,
2013-05-16 14:40:00,79.1,61.0,29.93,WSW,258,1.0,2.0,54,0.00,,,0.00,Wunderground v.1.15,2013-05-16 18:40:00,
2013-05-16 14:45:00,79.0,57.6,29.93,WSW,257,1.0,2.0,48,0.00,,,0.00,Wunderground v.1.15,2013-05-16 18:45:00,
2013-05-16 14:50:00,79.4,62.3,29.93,WSW,257,1.0,1.0,56,0.00,,,0.00,Wunderground v.1.15,2013-05-16 18:50:00,
2013-05-16 14:55:00,80.1,59.8,29.93,WSW,257,0.0,1.0,50,0.00,,,0.00,Wunderground v.1.15,2013-05-16 18:55:00,
2013-05-16 15:00:00,80.5,61.8,29.93,WSW,242,0.0,0.0,53,0.00,,,0.00,Wunderground v.1.15,2013-05-16 19:00:00,
2013-05-16 15:05:00,80.8,58.7,29.93,WSW,245,0.0,2.0,47,0.00,,,0.00,Wunderground v.1.15,2013-05-16 19:05:00,
2013-05-16 15:10:00,80.5,60.1,29.93,WSW,245,0.0,0.0,50,0.00,,,0.00,Wunderground v.1.15,2013-05-16 19:10:00,
2013-05-16 15:15:00,80.7,60.9,29.92,WSW,245,0.0,0.0,51,0.00,,,0.00,Wunderground v.1.15,2013-05-16 19:15:00,
2013-05-16 15:20:00,80.7,60.3,29.92,SW,232,0.0,0.0,50,0.00,,,0.00,Wunderground v.1.15,2013-05-16 19:20:00,
2013-05-16 15:25:00,80.1,58.0,29.92,WSW,242,1.0,1.0,47,0.00,,,0.00,Wunderground v.1.15,2013-05-16 19:25:00,
2013-05-16 15:35:00,80.4,58.3,29.92,WSW,252,1.0,1.0,47,0.00,,,0.00,Wunderground v.1.15,2013-05-16 19:35:00,
2013-05-16 15:40:00,80.9,61.1,29.92,WSW,252,1.0,1.0,51,0.00,,,0.00,Wunderground v.1.15,2013-05-16 19:40:00,
2013-05-16 15:45:00,81.6,58.2,29.92,WSW,253,0.0,5.0,45,0.00,,,0.00,Wunderground v.1.15,2013-05-16 19:45:00,
2013-05-16 15:50:00,80.8,59.9,29.91,WSW,254,1.0,1.0,49,0.00,,,0.00,Wunderground v.1.15,2013-05-16 19:50:00,
2013-05-16 15:55:00,80.7,59.8,29.91,WSW,254,1.0,1.0,49,0.00,,,0.00,Wunderground v.1.15,2013-05-16 19:55:00,
2013-05-16 16:00:00,81.4,60.4,29.91,WSW,255,0.0,0.0,49,0.00,,,0.00,Wunderground v.1.15,2013-05-16 20:00:00,
2013-05-16 16:05:00,82.4,60.7,29.91,West,259,0.0,0.0,48,0.00,,,0.00,Wunderground v.1.15,2013-05-16 20:05:00,
2013-05-16 16:15:00,83.3,61.0,29.91,West,259,0.0,2.0,47,0.00,,,0.00,Wunderground v.1.15,2013-05-16 20:15:00,
2013-05-16 16:20:00,82.9,60.0,29.91,WSW,246,1.0,1.0,46,0.00,,,0.00,Wunderground v.1.15,2013-05-16 20:20:00,
2013-05-16 16:25:00,82.7,61.0,29.90,WSW,246,0.0,3.0,48,0.00,,,0.00,Wunderground v.1.15,2013-05-16 20:25:00,
2013-05-16 16:30:00,82.6,61.5,29.90,WSW,240,1.0,1.0,49,0.00,,,0.00,Wunderground v.1.15,2013-05-16 20:30:00,
2013-05-16 16:35:00,82.6,60.3,29.90,West,281,1.0,1.0,47,0.00,,,0.00,Wunderground v.1.15,2013-05-16 20:35:00,
2013-05-16 16:40:00,82.8,59.9,29.90,West,272,1.0,1.0,46,0.00,,,0.00,Wunderground v.1.15,2013-05-16 20:40:00,
2013-05-16 16:45:00,83.0,60.1,29.90,West,260,0.0,1.0,46,0.00,,,0.00,Wunderground v.1.15,2013-05-16 20:45:00,
2013-05-16 16:50:00,82.7,61.0,29.90,West,259,0.0,0.0,48,0.00,,,0.00,Wunderground v.1.15,2013-05-16 20:50:00,
2013-05-16 16:55:00,82.1,61.0,29.90,WSW,257,0.0,0.0,49,0.00,,,0.00,Wunderground v.1.15,2013-05-16 20:55:00,
2013-05-16 17:00:00,82.2,60.6,29.90,West,259,0.0,0.0,48,0.00,,,0.00,Wunderground v.1.15,2013-05-16 21:00:00,
2013-05-16 17:05:00,81.9,61.4,29.90,WSW,242,1.0,1.0,50,0.00,,,0.00,Wunderground v.1.15,2013-05-16 21:05:00,
2013-05-16 17:10:00,82.3,60.1,29.90,WSW,242,0.0,0.0,47,0.00,,,0.00,Wunderground v.1.15,2013-05-16 21:10:00,
2013-05-16 17:15:00,82.8,59.3,29.90,West,265,0.0,0.0,45,0.00,,,0.00,Wunderground v.1.15,2013-05-16 21:15:00,
2013-05-16 17:20:00,82.8,60.5,29.90,SW,224,0.0,0.0,47,0.00,,,0.00,Wunderground v.1.15,2013-05-16 21:20:00,
2013-05-16 17:25:00,83.1,60.8,29.90,SW,225,0.0,0.0,47,0.00,,,0.00,Wunderground v.1.15,2013-05-16 21:25:00,
2013-05-16 17:30:00,83.6,60.6,29.90,SW,225,0.0,0.0,46,0.00,,,0.00,Wunderground v.1.15,2013-05-16 21:30:00,
2013-05-16 17:35:00,84.1,62.3,29.90,SW,225,0.0,0.0,48,0.00,,,0.00,Wunderground v.1.15,2013-05-16 21:35:00,
2013-05-16 17:40:00,84.1,60.5,29.90,West,275,0.0,0.0,45,0.00,,,0.00,Wunderground v.1.15,2013-05-16 21:40:00,
2013-05-16 17:45:00,83.8,61.4,29.90,West,275,0.0,0.0,47,0.00,,,0.00,Wunderground v.1.15,2013-05-16 21:45:00,
2013-05-16 17:50:00,83.4,59.2,29.90,West,275,0.0,0.0,44,0.00,,,0.00,Wunderground v.1.15,2013-05-16 21:50:00,
2013-05-16 17:55:00,82.9,60.0,29.90,West,275,0.0,0.0,46,0.00,,,0.00,Wunderground v.1.15,2013-05-16 21:55:00,
2013-05-16 18:00:00,82.8,60.5,29.90,West,275,0.0,0.0,47,0.00,,,0.00,Wunderground v.1.15,2013-05-16 22:00:00,
2013-05-16 18:05:00,82.3,61.2,29.90,West,275,0.0,0.0,49,0.00,,,0.00,Wunderground v.1.15,2013-05-16 22:05:00,
2013-05-16 18:10:00,81.8,60.8,29.90,West,275,0.0,0.0,49,0.00,,,0.00,Wunderground v.1.15,2013-05-16 22:10:00,
2013-05-16 18:15:00,81.3,60.9,29.90,West,275,0.0,0.0,50,0.00,,,0.00,Wunderground v.1.15,2013-05-16 22:15:00,
2013-05-16 18:20:00,80.9,61.1,29.91,West,275,0.0,0.0,51,0.00,,,0.00,Wunderground v.1.15,2013-05-16 22:20:00,
2013-05-16 18:25:00,80.7,60.3,29.90,West,275,0.0,0.0,50,0.00,,,0.00,Wunderground v.1.15,2013-05-16 22:25:00,
2013-05-16 18:30:00,80.7,60.3,29.90,West,275,0.0,0.0,50,0.00,,,0.00,Wunderground v.1.15,2013-05-16 22:30:00,
2013-05-16 18:35:00,80.3,59.4,29.90,West,275,0.0,0.0,49,0.00,,,0.00,Wunderground v.1.15,2013-05-16 22:35:00,
2013-05-16 18:40:00,80.0,59.1,29.90,West,275,0.0,0.0,49,0.00,,,0.00,Wunderground v.1.15,2013-05-16 22:40:00,
2013-05-16 18:45:00,79.7,58.8,29.90,West,275,0.0,0.0,49,0.00,,,0.00,Wunderground v.1.15,2013-05-16 22:45:00,
2013-05-16 18:50:00,79.3,58.5,29.90,West,275,0.0,0.0,49,0.00,,,0.00,Wunderground v.1.15,2013-05-16 22:50:00,
2013-05-16 18:55:00,78.7,58.5,29.90,West,272,0.0,0.0,50,0.00,,,0.00,Wunderground v.1.15,2013-05-16 22:55:00,
2013-05-16 19:00:00,78.2,58.6,29.90,West,273,0.0,0.0,51,0.00,,,0.00,Wunderground v.1.15,2013-05-16 23:00:00,
2013-05-16 19:05:00,77.4,59.5,29.90,SE,126,1.0,1.0,54,0.00,,,0.00,Wunderground v.1.15,2013-05-16 23:05:00,
2013-05-16 19:10:00,76.8,59.4,29.90,NE,56,1.0,1.0,55,0.00,,,0.00,Wunderground v.1.15,2013-05-16 23:10:00,
2013-05-16 19:15:00,76.4,59.5,29.91,WNW,300,0.0,1.0,56,0.00,,,0.00,Wunderground v.1.15,2013-05-16 23:15:00,
2013-05-16 19:20:00,76.1,60.7,29.90,WNW,299,0.0,0.0,59,0.00,,,0.00,Wunderground v.1.15,2013-05-16 23:20:00,
2013-05-16 19:25:00,75.9,59.1,29.90,WNW,286,0.0,2.0,56,0.00,,,0.00,Wunderground v.1.15,2013-05-16 23:25:00,
2013-05-16 19:30:00,75.7,60.8,29.90,WNW,286,0.0,0.0,60,0.00,,,0.00,Wunderground v.1.15,2013-05-16 23:30:00,
2013-05-16 19:35:00,75.4,59.6,29.91,West,281,1.0,1.0,58,0.00,,,0.00,Wunderground v.1.15,2013-05-16 23:35:00,
2013-05-16 19:40:00,75.1,60.7,29.90,West,281,0.0,0.0,61,0.00,,,0.00,Wunderground v.1.15,2013-05-16 23:40:00,
2013-05-16 19:45:00,74.9,60.5,29.91,West,281,0.0,0.0,61,0.00,,,0.00,Wunderground v.1.15,2013-05-16 23:45:00,
2013-05-16 19:50:00,74.5,60.2,29.90,SW,214,0.0,0.0,61,0.00,,,0.00,Wunderground v.1.15,2013-05-16 23:50:00,
2013-05-16 19:55:00,74.1,59.8,29.91,SW,219,0.0,0.0,61,0.00,,,0.00,Wunderground v.1.15,2013-05-16 23:55:00,
2013-05-16 20:00:00,73.8,59.5,29.91,SW,219,0.0,0.0,61,0.00,,,0.00,Wunderground v.1.15,2013-05-17 00:00:00,
2013-05-16 20:05:00,73.5,59.2,29.91,SW,219,0.0,0.0,61,0.00,,,0.00,Wunderground v.1.15,2013-05-17 00:05:00,
2013-05-16 20:10:00,73.2,58.9,29.91,SW,219,0.0,0.0,61,0.00,,,0.00,Wunderground v.1.15,2013-05-17 00:10:00,
2013-05-16 20:15:00,72.9,59.1,29.91,SW,219,0.0,0.0,62,0.00,,,0.00,Wunderground v.1.15,2013-05-17 00:15:00,
2013-05-16 20:25:00,72.4,58.6,29.92,SW,219,0.0,0.0,62,0.00,,,0.00,Wunderground v.1.15,2013-05-17 00:25:00,
2013-05-16 20:30:00,72.1,58.8,29.92,SW,219,0.0,0.0,63,0.00,,,0.00,Wunderground v.1.15,2013-05-17 00:30:00,
2013-05-16 20:35:00,71.9,59.1,29.92,SW,219,0.0,0.0,64,0.00,,,0.00,Wunderground v.1.15,2013-05-17 00:35:00,
2013-05-16 20:40:00,71.6,58.8,29.93,SW,219,0.0,0.0,64,0.00,,,0.00,Wunderground v.1.15,2013-05-17 00:40:00,
2013-05-16 20:45:00,71.3,58.9,29.93,SW,219,0.0,0.0,65,0.00,,,0.00,Wunderground v.1.15,2013-05-17 00:45:00,
2013-05-16 20:50:00,71.0,59.1,29.93,SW,219,0.0,0.0,66,0.00,,,0.00,Wunderground v.1.15,2013-05-17 00:50:00,
2013-05-16 20:55:00,70.6,59.1,29.93,SW,218,0.0,0.0,67,0.00,,,0.00,Wunderground v.1.15,2013-05-17 00:55:00,
2013-05-16 21:00:00,70.1,58.6,29.93,SW,218,0.0,0.0,67,0.00,,,0.00,Wunderground v.1.15,2013-05-17 01:00:00,
2013-05-16 21:05:00,69.7,58.3,29.93,SW,218,0.0,0.0,67,0.00,,,0.00,Wunderground v.1.15,2013-05-17 01:05:00,
2013-05-16 21:10:00,69.4,58.4,29.93,SW,219,0.0,0.0,68,0.00,,,0.00,Wunderground v.1.15,2013-05-17 01:10:00,
2013-05-16 21:15:00,69.0,58.4,29.93,SW,219,0.0,0.0,69,0.00,,,0.00,Wunderground v.1.15,2013-05-17 01:15:00,
2013-05-16 21:20:00,68.5,58.3,29.93,SW,219,0.0,0.0,70,0.00,,,0.00,Wunderground v.1.15,2013-05-17 01:20:00,
2013-05-16 21:25:00,68.1,58.3,29.93,SW,218,0.0,0.0,71,0.00,,,0.00,Wunderground v.1.15,2013-05-17 01:25:00,
2013-05-16 21:30:00,67.9,58.1,29.93,SW,218,0.0,0.0,71,0.00,,,0.00,Wunderground v.1.15,2013-05-17 01:30:00,
2013-05-16 21:35:00,67.6,58.2,29.93,SW,218,0.0,0.0,72,0.00,,,0.00,Wunderground v.1.15,2013-05-17 01:35:00,
2013-05-16 21:40:00,67.4,58.1,29.94,SW,219,0.0,0.0,72,0.00,,,0.00,Wunderground v.1.15,2013-05-17 01:40:00,
2013-05-16 21:45:00,67.0,58.4,29.94,SW,219,0.0,0.0,74,0.00,,,0.00,Wunderground v.1.15,2013-05-17 01:45:00,
2013-05-16 21:50:00,66.6,58.1,29.94,SW,218,0.0,0.0,74,0.00,,,0.00,Wunderground v.1.15,2013-05-17 01:50:00,
2013-05-16 21:55:00,66.2,58.0,29.93,SW,219,0.0,0.0,75,0.00,,,0.00,Wunderground v.1.15,2013-05-17 01:55:00,
2013-05-16 22:00:00,65.9,57.7,29.94,SW,219,0.0,0.0,75,0.00,,,0.00,Wunderground v.1.15,2013-05-17 02:00:00,
2013-05-16 22:05:00,65.7,57.6,29.94,SW,219,0.0,0.0,75,0.00,,,0.00,Wunderground v.1.15,2013-05-17 02:05:00,
2013-05-16 22:15:00,65.6,57.8,29.94,SW,219,0.0,0.0,76,0.00,,,0.00,Wunderground v.1.15,2013-05-17 02:15:00,
2013-05-16 22:20:00,65.4,57.6,29.95,SW,219,0.0,0.0,76,0.00,,,0.00,Wunderground v.1.15,2013-05-17 02:20:00,
2013-05-16 22:25:00,65.1,57.3,29.95,SW,218,0.0,0.0,76,0.00,,,0.00,Wunderground v.1.15,2013-05-17 02:25:00,
2013-05-16 22:30:00,64.9,57.9,29.95,SW,218,0.0,0.0,78,0.00,,,0.00,Wunderground v.1.15,2013-05-17 02:30:00,
2013-05-16 22:35:00,64.6,57.6,29.95,SW,219,0.0,0.0,78,0.00,,,0.00,Wunderground v.1.15,2013-05-17 02:35:00,
2013-05-16 22:40:00,64.3,57.6,29.95,SW,218,0.0,0.0,79,0.00,,,0.00,Wunderground v.1.15,2013-05-17 02:40:00,
2013-05-16 22:45:00,64.2,57.5,29.95,SW,219,0.0,0.0,79,0.00,,,0.00,Wunderground v.1.15,2013-05-17 02:45:00,
2013-05-16 22:50:00,64.1,57.8,29.95,SW,219,0.0,0.0,80,0.00,,,0.00,Wunderground v.1.15,2013-05-17 02:50:00,
2013-05-16 22:55:00,63.9,57.6,29.95,SW,219,0.0,0.0,80,0.00,,,0.00,Wunderground v.1.15,2013-05-17 02:55:00,
2013-05-16 23:00:00,63.7,57.4,29.95,SW,218,0.0,0.0,80,0.00,,,0.00,Wunderground v.1.15,2013-05-17 03:00:00,
2013-05-16 23:05:00,63.5,57.6,29.95,SW,219,0.0,0.0,81,0.00,,,0.00,Wunderground v.1.15,2013-05-17 03:05:00,
2013-05-16 23:10:00,63.3,57.7,29.95,SW,219,0.0,0.0,82,0.00,,,0.00,Wunderground v.1.15,2013-05-17 03:10:00,
2013-05-16 23:15:00,63.2,57.6,29.95,SW,218,0.0,0.0,82,0.00,,,0.00,Wunderground v.1.15,2013-05-17 03:15:00,
2013-05-16 23:25:00,62.8,57.6,29.95,SW,219,0.0,0.0,83,0.00,,,0.00,Wunderground v.1.15,2013-05-17 03:25:00,
2013-05-16 23:30:00,62.7,57.5,29.95,SW,219,0.0,0.0,83,0.00,,,0.00,Wunderground v.1.15,2013-05-17 03:30:00,
2013-05-16 23:35:00,62.5,57.3,29.96,SW,218,0.0,0.0,83,0.00,,,0.00,Wunderground v.1.15,2013-05-17 03:35:00,
2013-05-16 23:40:00,62.3,57.4,29.96,SW,219,0.0,0.0,84,0.00,,,0.00,Wunderground v.1.15,2013-05-17 03:40:00,
2013-05-16 23:45:00,62.1,57.2,29.96,SW,219,0.0,0.0,84,0.00,,,0.00,Wunderground v.1.15,2013-05-17 03:45:00,
2013-05-16 23:50:00,61.9,57.3,29.96,SW,218,0.0,0.0,85,0.00,,,0.00,Wunderground v.1.15,2013-05-17 03:50:00,
2013-05-16 23:55:00,61.7,57.1,29.96,SW,219,0.0,0.0,85,0.00,,,0.00,Wunderground v.1.15,2013-05-17 03:55:00,